Temperature
6 6 6 6 6 6 7 7 7 7 7 7 7 7 7 7 8 8 8 8 8 8 8 8 8 8 8 8 8 9 9 9 8 8 8 9 8 8 8 8 8 8 8
6 6 6 6 6 6 6 6 6 6 7 7 7 7 7 7 7 8 8 8 8 8 8 8 8 8 8 8 8 8 8 8 8 8 8 8 8 8 8 8 8 8 7
5 5 5 5 5 6 6 6 6 6 6 6 7 7 7 7 7 7 7 8 8 8 8 8 8 8 8 8 8 8 8 8 8 8 8 8 8 8 8 8 7 7 7
5 5 5 5 5 5 5 5 6 6 6 6 6 7 7 7 7 7 7 7 8 8 8 8 8 8 8 8 8 8 8 8 8 7 7 7 7 7 7 7 7 7 6
4 4 4 4 4 4 5 5 5 5 6 6 6 6 6 7 7 7 7 7 7 8 8 8 8 8 8 8 8 8 8 7 7 7 7 7 7 7 7 7 6 6 6
3 4 4 4 4 4 4 4 5 5 5 6 6 6 6 6 7 7 7 7 7 7 7 8 8 7 7 7 8 8 8 7 7 7 7 7 7 7 6 6 6 5 5
3 3 3 3 3 3 3 4 4 5 5 5 5 5 6 6 6 6 6 6 7 7 7 7 7 7 7 7 7 7 7 7 7 7 7 7 7 7 6 6 5 5 5
3 3 3 3 3 3 3 3 4 4 4 5 5 5 5 6 6 6 6 6 6 7 7 7 7 7 7 7 7 7 7 7 7 7 7 7 6 6 6 6 5 5 5
2 2 2 2 2 2 3 3 3 4 4 4 4 5 5 5 5 6 6 6 6 6 6 7 7 7 7 7 6 6 6 6 6 6 6 6 6 6 5 5 5 4 4
1 1 2 2 2 2 2 3 3 3 4 4 4 4 5 5 5 5 5 5 5 6 6 6 6 6 6 6 6 6 6 6 6 6 6 5 5 5 5 5 4 4 4
1 1 1 1 1 2 2 2 3 3 3 3 4 4 4 4 5 5 5 5 5 5 5 6 6 6 6 6 6 6 6 6 6 6 5 5 5 4 4 4 4 4 3
1 1 1 1 1 1 2 2 2 2 3 3 3 3 3 4 4 4 4 5 5 5 5 5 5 6 6 6 6 6 6 6 5 5 5 4 4 4 4 3 3 3 3
0 1 1 1 1 1 1 2 2 2 2 2 3 3 3 3 3 4 4 4 4 5 5 5 5 5 5 5 5 5 5 5 5 5 4 4 4 4 3 3 3 2 2
0 0 0 1 1 1 1 1 1 2 2 2 2 2 3 3 3 3 3 4 4 4 4 4 4 5 5 4 4 4 5 5 5 4 4 3 3 3 3 3 2 2 2
0 0 0 0 1 1 1 1 1 1 1 1 2 2 2 2 3 3 3 3 3 3 3 3 3 4 4 4 4 4 4 4 4 3 3 3 2 2 2 2 2 1 1
-0 -0 0 0 0 1 1 1 1 1 1 2 2 2 2 2 2 3 3 3 3 3 3 3 3 3 3 3 3 3 3 3 3 3 3 3 2 2 2 1 1 1 0
-1 -0 -0 0 0 0 0 0 1 1 1 1 2 2 2 2 2 2 2 2 2 2 3 2 2 2 2 2 2 2 2 3 3 2 2 2 2 2 1 1 0 -0 -0
-1 -1 -1 -0 -0 -0 0 0 0 0 0 1 1 1 1 2 2 2 2 2 2 2 2 2 2 2 2 2 2 2 2 2 2 2 2 1 1 1 1 0 -0 -1 -1
-1 -1 -1 -1 -1 -0 -0 -0 -0 -0 -0 -0 0 1 1 1 1 2 2 2 2 2 2 2 2 2 2 2 2 2 2 2 1 1 1 1 1 1 0 -0 -1 -1 -1
-2 -1 -1 -1 -1 -1 -1 -1 -1 -1 -1 -1 -1 -0 0 1 1 1 1 1 1 1 1 1 1 1 1 1 1 1 1 1 1 1 1 1 0 0 -0 -0 -1 -1 -1
-2 -2 -2 -2 -2 -1 -1 -1 -1 -1 -1 -1 -1 -1 -0 0 0 1 1 1 1 1 1 1 1 1 1 1 1 1 1 1 0 1 0 0 -0 -0 -1 -1 -1 -1 -2
-3 -3 -2 -2 -2 -2 -2 -2 -2 -2 -2 -2 -2 -1 -0 -0 -0 0 0 0 0 0 0 0 0 0 1 1 1 0 0 0 0 0 -0 -0 -0 -1 -1 -1 -2 -2 -2
-3 -3 -3 -3 -3 -3 -2 -2 -2 -2 -2 -2 -2 -2 -1 -1 -0 -0 -0 0 0 0 0 0 0 0 0 0 0 0 0 0 0 0 -0 -0 -1 -1 -1 -2 -2 -2 -2
-4 -4 -4 -4 -3 -3 -3 -3 -3 -3 -3 -3 -2 -2 -2 -1 -1 -1 -1 -0 -0 -0 -0 -0 -0 0 0 -0 -0 -0 -0 -0 -0 -0 -0 -1 -1 -1 -2 -2 -2 -2 -3
-4 -4 -4 -4 -4 -4 -3 -3 -3 -3 -3 -3 -3 -2 -2 -2 -1 -1 -1 -1 -1 -1 -1 -1 -0 -0 -0 -0 -0 -0 -0 -0 -1 -1 -1 -1 -1 -2 -2 -2 -2 -3 -3
-5 -5 -5 -4 -4 -4 -4 -4 -4 -4 -3 -3 -3 -3 -2 -2 -2 -1 -1 -1 -1 -1 -1 -1 -1 -1 -1 -1 -1 -1 -1 -1 -1 -1 -1 -1 -2 -2 -2 -2 -2 -3 -3
Wind_Speed
7 8 9 8 8 9 8 8 9 9 10 11 12 12 12 13 13 14 14 15 16 15 14 14 14 12 10 9 8 8 8 7 7 5 4 4 6 6 5 6 6 6 7
7 7 7 7 7 7 8 8 8 9 10 11 11 12 12 12 13 14 14 14 15 15 14 14 14 11 12 10 9 9 8 8 7 7 4 4 5 5 5 5 4 4 5
7 7 6 6 6 7 7 8 8 8 9 10 11 11 11 11 12 12 13 13 14 13 13 14 13 13 12 10 10 9 7 7 6 6 5 3 2 3 3 3 3 3 3
6 7 6 7 6 7 7 7 7 8 8 9 10 10 10 10 11 11 11 11 12 11 11 12 12 13 13 12 10 10 8 7 7 6 5 3 2 2 3 3 3 3 3
6 6 6 6 6 6 6 6 7 7 7 8 8 9 9 9 9 10 9 10 11 11 11 11 11 11 11 10 8 9 9 7 7 6 6 4 4 3 4 3 3 2 2
7 6 7 6 6 6 6 6 6 6 6 6 7 7 8 7 8 9 9 7 9 10 10 10 10 10 10 11 10 11 10 10 8 7 6 7 7 5 4 4 3 2 2
6 7 6 6 6 6 6 6 6 6 4 5 5 6 6 6 7 8 8 7 8 9 9 9 8 8 10 9 9 8 9 9 9 9 8 8 7 6 5 5 4 3 3
6 6 6 6 6 6 6 6 6 5 3 4 4 4 5 5 5 6 6 7 7 8 8 9 8 8 9 9 8 7 7 6 6 6 7 6 4 5 5 4 3 1 2
5 6 6 5 6 6 6 7 6 4 3 3 3 3 4 4 5 5 5 6 5 6 7 8 8 8 9 9 8 7 6 4 2 4 4 3 4 5 5 4 4 2 1
6 6 6 5 6 6 7 7 5 3 3 2 2 2 2 2 3 3 4 4 4 4 4 6 8 8 9 9 8 8 7 5 4 4 4 4 3 4 4 4 4 3 1
6 6 6 5 6 6 6 6 4 3 2 2 2 2 1 1 2 3 3 3 4 4 4 4 5 7 8 8 7 6 7 6 5 5 4 3 3 2 2 2 1 2 2
6 6 6 6 5 5 5 4 3 2 2 1 0 1 1 0 1 2 2 1 2 4 3 3 4 7 7 6 5 6 8 6 5 5 4 3 3 2 2 3 3 4 3
5 6 6 6 5 4 4 4 3 2 1 1 0 0 1 0 1 3 2 1 1 2 2 3 4 6 6 4 6 7 6 5 5 5 5 3 3 3 4 4 5 5 6
5 6 5 5 5 4 3 3 2 1 1 1 1 1 1 1 1 1 1 2 2 2 2 4 5 5 4 4 5 4 3 4 4 5 4 4 4 4 4 3 3 3 3
5 5 5 4 4 4 3 3 2 2 2 2 2 2 2 2 2 1 1 1 1 2 2 2 3 3 3 2 2 2 3 3 4 4 5 5 4 4 3 3 3 2 2
5 5 4 4 3 2 2 2 2 2 3 3 3 3 2 2 2 2 2 2 2 3 3 3 2 3 3 3 3 2 2 3 4 4 5 5 5 5 4 3 3 3 3
5 5 4 3 3 2 1 1 2 3 4 3 3 4 2 1 2 3 4 3 3 3 3 3 3 3 3 3 2 2 2 3 4 4 4 5 5 5 4 4 3 3 3
4 4 4 3 2 2 1 1 1 1 2 3 3 3 2 3 4 4 5 4 3 2 3 3 3 3 2 2 2 2 2 3 4 4 4 4 5 5 5 4 4 4 3
3 3 3 3 2 1 1 1 1 1 1 2 3 3 3 3 4 4 3 3 3 2 2 2 3 3 2 2 2 2 3 3 4 4 4 4 4 5 5 4 4 5 4
3 3 3 2 1 1 0 1 0 1 1 2 2 2 2 1 2 2 2 2 2 2 2 2 2 3 3 3 2 3 3 3 4 4 4 4 4 4 5 5 4 4 3
2 2 3 2 1 1 0 1 1 0 1 1 2 2 2 0 1 1 1 1 2 2 2 2 2 3 3 2 2 3 4 3 3 4 4 4 4 4 4 4 4 4 4
2 2 1 1 1 1 1 1 1 1 1 1 2 2 2 0 1 1 1 1 1 1 2 2 2 2 2 3 3 4 4 4 4 4 4 4 4 5 4 4 4 4 4
1 1 1 1 1 1 1 1 1 1 1 1 1 1 1 0 1 1 0 0 1 1 2 2 2 2 2 2 2 4 5 4 4 5 5 5 4 5 5 5 5 5 5
1 1 1 1 1 1 1 1 1 1 1 1 1 1 1 0 1 0 0 1 1 2 2 2 2 3 3 2 2 2 3 4 5 5 6 6 5 5 5 5 5 6 5
1 1 1 1 1 1 1 1 1 1 1 1 1 1 1 0 0 1 1 1 2 2 2 2 2 2 3 3 3 4 6 7 6 6 5 5 6 5 6 6 6 6 5
1 1 1 1 1 1 1 1 1 2 2 2 1 1 1 0 1 1 1 1 2 2 2 2 2 3 3 4 6 7 8 8 8 8 6 5 6 6 6 6 7 6 7
Wind_Direction
272 271 268 261 261 260 256 255 250 245 240 237 235 232 230 228 222 220 222 219 220 218 214 216 217 214 211 211 208 208 212 215 227 234 231 216 214 217 215 224 227 227 225
287 281 277 273 267 264 260 260 255 247 243 239 235 232 228 227 222 221 221 218 217 214 211 213 213 208 211 211 207 209 211 211 213 224 222 215 222 217 216 217 223 232 238
299 290 286 284 279 274 272 267 261 253 249 244 234 229 227 226 224 223 219 219 216 213 211 210 208 205 211 208 205 207 208 208 207 211 221 211 220 209 208 215 222 230 232
306 298 290 287 290 288 287 280 269 260 252 248 237 229 225 223 224 222 218 217 213 209 207 207 207 208 209 204 202 203 201 200 198 203 213 206 210 208 205 216 229 233 229
305 303 298 291 294 297 297 292 285 272 261 249 239 230 223 221 220 217 217 217 210 205 205 208 208 202 204 203 198 197 197 199 197 200 207 206 204 201 213 212 226 228 234
302 303 305 298 299 302 301 299 296 288 267 247 238 230 226 223 215 214 216 215 209 205 206 204 200 198 201 200 200 199 199 199 201 204 210 210 213 211 203 199 199 207 235
307 306 307 310 307 305 306 306 307 297 280 262 245 234 226 222 207 207 212 215 213 208 202 198 198 198 196 199 196 195 204 202 206 210 210 215 214 204 194 197 205 221 242
303 304 309 312 310 309 308 307 307 298 278 269 256 245 235 226 209 204 204 210 212 206 201 199 195 197 195 191 194 197 204 205 203 209 212 215 209 195 197 200 192 143 56
303 303 304 306 308 311 308 306 307 295 281 276 257 248 238 221 188 192 197 198 196 203 201 197 193 196 186 181 186 188 192 191 152 151 154 150 142 156 160 144 149 151 227
297 298 301 303 303 303 307 310 307 288 283 286 277 259 231 207 174 180 186 184 191 198 194 192 190 189 182 179 188 187 191 185 160 141 130 118 124 129 145 173 179 176 178
298 300 304 306 301 299 306 309 304 298 289 283 290 285 240 185 151 148 172 180 183 188 193 191 187 169 175 182 193 195 186 173 167 158 146 133 116 108 99 85 98 165 174
298 299 303 308 309 309 308 308 304 299 277 284 345 351 309 178 147 129 111 176 181 184 194 191 183 166 168 174 181 169 159 157 159 156 151 151 146 130 105 88 73 60 51
297 299 303 309 310 307 306 309 309 307 301 296 336 317 289 244 133 117 120 114 144 177 170 169 168 160 155 160 155 157 160 160 161 160 161 157 141 131 115 97 81 74 62
292 297 301 302 306 310 311 304 297 297 314 325 305 290 279 213 168 129 114 108 100 104 122 136 139 136 137 144 151 151 158 162 165 160 148 135 128 128 127 125 118 106 81
291 295 298 297 300 311 311 302 285 273 275 269 270 266 238 220 208 199 183 178 154 141 126 130 133 129 129 130 129 133 139 144 145 141 140 139 137 134 128 122 122 115 110
289 292 293 292 295 304 308 324 345 313 320 310 311 305 277 240 205 178 150 132 139 151 140 142 147 147 152 151 146 136 145 151 145 141 145 148 149 148 137 122 116 120 119
279 284 288 285 288 296 302 335 352 1 7 7 2 348 325 176 145 137 127 119 141 151 143 147 154 157 157 155 154 150 152 145 141 142 144 148 148 144 138 136 135 128 121
284 287 289 283 283 280 288 309 327 360 349 353 2 2 6 130 120 124 127 118 131 135 145 155 160 157 152 154 155 147 130 132 138 140 141 143 146 144 141 143 149 147 138
286 289 290 291 290 291 306 337 9 28 355 344 351 8 39 108 111 114 123 137 149 150 151 155 154 151 144 142 142 139 135 134 142 143 143 143 146 143 144 149 147 147 138
282 290 294 291 291 305 320 341 358 12 339 330 332 338 2 102 133 130 125 136 146 152 153 154 151 146 144 144 140 137 131 130 134 140 143 144 145 145 147 150 151 149 144
283 288 291 295 293 280 278 276 256 257 308 320 320 328 337 267 158 156 162 157 159 163 158 152 147 145 145 145 145 138 136 138 136 136 137 143 143 142 144 144 140 139 133
280 289 300 296 284 271 278 273 242 251 299 315 328 341 350 123 158 163 177 164 154 156 152 152 152 152 158 160 155 150 148 146 144 142 141 140 142 141 141 139 136 135 136
279 288 310 310 296 296 299 282 245 271 297 310 321 327 326 170 155 156 160 147 130 130 128 136 146 147 139 139 156 160 160 161 159 155 149 144 140 141 143 142 142 140 140
265 267 279 285 283 276 283 277 270 286 294 302 307 310 317 280 148 140 154 144 134 126 127 131 143 151 150 145 136 140 145 146 145 148 147 146 143 140 139 140 142 143 141
258 261 265 270 267 274 286 273 273 288 293 290 292 298 306 288 152 144 134 125 123 123 121 120 130 137 146 147 143 140 141 141 141 137 136 138 141 140 140 143 144 142 139
270 262 262 265 263 263 269 265 269 282 287 287 284 286 282 238 143 125 124 129 125 119 115 112 125 137 146 139 137 139 140 140 138 137 136 137 141 141 140 140 139 138 135
Height
1383 1382 1382 1382 1381 1381 1380 1380 1380 1381 1381 1382 1384 1385 1387 1388 1390 1392 1395 1397 1399 1401 1404 1407 1410 1414 1417 1419 1421 1424 1426 1428 1429 1430 1432 1434 1435 1436 1437 1438 1438 1439 1439
1379 1378 1378 1377 1376 1376 1375 1375 1375 1375 1375 1376 1377 1379 1380 1382 1383 1386 1387 1389 1391 1394 1397 1400 1404 1407 1410 1413 1415 1418 1420 1422 1424 1424 1427 1429 1430 1431 1432 1433 1433 1434 1434
1375 1374 1373 1373 1372 1371 1370 1370 1369 1369 1369 1370 1371 1372 1373 1375 1377 1379 1381 1383 1385 1387 1390 1393 1397 1401 1403 1406 1409 1412 1414 1417 1419 1420 1422 1424 1425 1426 1427 1428 1428 1429 1429
1372 1371 1369 1369 1367 1366 1365 1364 1364 1363 1363 1363 1364 1365 1367 1369 1371 1373 1374 1376 1379 1381 1384 1387 1391 1394 1397 1400 1403 1406 1408 1411 1413 1415 1417 1419 1420 1421 1422 1422 1423 1424 1424
1370 1368 1366 1365 1364 1362 1360 1359 1358 1357 1357 1357 1358 1360 1362 1364 1365 1366 1369 1371 1373 1376 1379 1382 1385 1388 1391 1395 1397 1400 1403 1405 1407 1410 1412 1413 1414 1415 1417 1418 1419 1419 1419
1367 1364 1363 1362 1359 1357 1355 1354 1352 1352 1351 1352 1353 1354 1356 1358 1359 1362 1364 1365 1368 1371 1374 1377 1380 1383 1386 1390 1393 1395 1398 1400 1401 1404 1406 1407 1409 1410 1412 1413 1414 1414 1414
1363 1362 1360 1358 1355 1353 1351 1349 1347 1346 1347 1347 1349 1350 1351 1352 1354 1356 1359 1361 1363 1366 1369 1372 1375 1378 1382 1385 1388 1390 1393 1395 1397 1399 1401 1402 1404 1406 1407 1408 1410 1410 1410
1361 1359 1357 1354 1352 1350 1348 1345 1344 1343 1343 1343 1344 1345 1346 1348 1349 1351 1354 1356 1359 1362 1365 1368 1371 1374 1377 1380 1383 1385 1388 1390 1393 1395 1397 1398 1400 1402 1404 1405 1406 1406 1406
1358 1356 1354 1351 1349 1346 1344 1342 1340 1340 1339 1340 1340 1341 1342 1343 1345 1347 1350 1352 1354 1357 1360 1363 1367 1369 1372 1375 1378 1380 1383 1385 1388 1390 1392 1394 1396 1398 1400 1401 1401 1402 1402
1356 1353 1351 1349 1346 1343 1341 1339 1338 1337 1337 1337 1337 1337 1338 1340 1341 1343 1346 1348 1350 1353 1356 1359 1363 1365 1368 1371 1374 1376 1378 1380 1383 1386 1388 1390 1392 1394 1395 1397 1398 1398 1398
1353 1350 1348 1346 1344 1341 1339 1338 1337 1336 1335 1335 1335 1335 1336 1337 1339 1340 1343 1345 1347 1350 1352 1355 1358 1361 1364 1367 1370 1372 1374 1377 1379 1381 1383 1386 1388 1390 1391 1393 1394 1395 1395
1350 1347 1345 1343 1341 1339 1337 1336 1335 1334 1334 1333 1333 1333 1334 1335 1337 1338 1340 1343 1345 1347 1349 1352 1354 1358 1361 1364 1366 1368 1371 1373 1375 1377 1379 1382 1384 1386 1388 1389 1390 1391 1392
1346 1344 1342 1340 1339 1337 1335 1334 1333 1333 1332 1332 1332 1332 1333 1334 1335 1337 1338 1341 1343 1345 1347 1349 1352 1355 1358 1360 1363 1365 1367 1369 1371 1373 1375 1378 1381 1383 1385 1386 1387 1388 1389
1343 1341 1340 1338 1336 1335 1333 1333 1332 1332 1331 1331 1331 1331 1332 1333 1334 1335 1337 1339 1341 1343 1345 1348 1350 1352 1355 1357 1359 1362 1364 1366 1368 1370 1372 1375 1378 1380 1381 1383 1384 1385 1386
1341 1339 1337 1336 1334 1333 1332 1332 1332 1332 1332 1331 1331 1331 1331 1331 1333 1334 1335 1337 1339 1341 1343 1346 1348 1350 1352 1354 1356 1358 1360 1363 1365 1367 1370 1372 1374 1376 1378 1380 1381 1382 1383
1338 1337 1335 1333 1332 1331 1330 1330 1330 1330 1330 1330 1329 1329 1330 1331 1332 1333 1335 1336 1338 1340 1342 1344 1346 1348 1350 1351 1353 1355 1357 1360 1362 1365 1367 1369 1371 1373 1375 1377 1379 1381 1381
1336 1334 1333 1331 1330 1329 1329 1328 1328 1328 1328 1328 1328 1328 1329 1329 1331 1332 1334 1335 1337 1339 1341 1342 1344 1346 1348 1349 1351 1353 1355 1357 1360 1362 1365 1367 1369 1371 1373 1375 1377 1379 1380
1333 1332 1331 1330 1329 1329 1328 1328 1328 1327 1327 1326 1327 1327 1328 1329 1330 1331 1333 1335 1336 1338 1340 1341 1343 1345 1346 1348 1350 1351 1353 1355 1358 1360 1363 1365 1367 1369 1371 1373 1375 1377 1378
1331 1330 1329 1328 1328 1328 1327 1327 1327 1327 1327 1326 1326 1326 1327 1328 1330 1331 1333 1334 1335 1337 1338 1340 1342 1343 1345 1347 1348 1350 1351 1353 1356 1358 1361 1363 1366 1368 1369 1372 1374 1376 1377
1329 1328 1327 1327 1326 1326 1326 1326 1326 1326 1326 1325 1325 1325 1326 1328 1329 1330 1332 1333 1334 1336 1338 1339 1340 1342 1344 1345 1347 1348 1350 1352 1355 1357 1359 1362 1364 1366 1368 1370 1372 1374 1376
1326 1326 1325 1325 1325 1325 1325 1325 1326 1325 1325 1325 1324 1325 1326 1327 1328 1329 1331 1332 1334 1335 1336 1338 1339 1341 1342 1344 1346 1347 1349 1351 1353 1356 1358 1361 1363 1365 1367 1369 1371 1373 1374
1325 1324 1324 1324 1324 1324 1324 1324 1324 1324 1324 1324 1323 1324 1325 1326 1327 1329 1330 1332 1333 1334 1336 1337 1338 1340 1342 1343 1345 1347 1348 1350 1352 1355 1357 1359 1361 1364 1366 1368 1370 1371 1373
1323 1323 1322 1322 1322 1322 1322 1322 1322 1323 1323 1323 1323 1323 1324 1325 1326 1327 1329 1330 1332 1333 1335 1336 1337 1339 1341 1343 1345 1346 1348 1350 1352 1354 1356 1358 1360 1362 1364 1367 1369 1371 1373
1321 1321 1321 1321 1321 1320 1320 1320 1321 1321 1321 1321 1322 1322 1322 1324 1325 1326 1328 1329 1331 1332 1333 1335 1336 1338 1340 1341 1344 1345 1347 1349 1352 1354 1356 1357 1359 1361 1364 1366 1368 1370 1372
1320 1319 1319 1319 1319 1319 1319 1319 1319 1320 1320 1320 1320 1321 1321 1323 1324 1325 1327 1328 1330 1331 1332 1334 1335 1337 1339 1341 1342 1344 1347 1349 1351 1353 1355 1357 1359 1361 1363 1365 1367 1369 1371
1318 1318 1318 1318 1318 1318 1318 1318 1318 1318 1319 1319 1319 1320 1321 1322 1323 1324 1326 1327 1328 1330 1331 1333 1334 1336 1338 1340 1342 1344 1346 1349 1351 1353 1355 1356 1358 1360 1362 1364 1366 1369 1371